Air Force Academy, CO

3:00 PM MST on November 16, 2019 (GMT -0700)
Usaf Academy

Weather History for KAFF - May, 2019

Change the Weather History Date:

Wednesday, May 1, 2019

  Actual Average Record
Temperature  
Mean Temperature 42 °F -  
Max Temperature 50 °F 59 °F 80 °F (2001)
Min Temperature 35 °F 34 °F 22 °F (2013)
Degree Days  
Heating Degree Days 22    
Moisture  
Dew Point 36 °F    
Average Humidity 91    
Maximum Humidity 100    
Minimum Humidity 66    
Precipitation  
Precipitation 0.00 in - - ()
Sea Level Pressure  
Sea Level Pressure 29.93 in    
Wind  
Wind Speed 9 mph (SSE)    
Max Wind Speed 22 mph    
Max Gust Speed 26 mph    
Visibility 7 miles    
Events Fog , Rain    
Averages and records for this station are not official NWS values.
T = Trace of Precipitation, MM = Missing Value Source: NWS Daily Summary

Daily Weather History Graph

Daily Weather History Graph

Search for Another Location

Airport or City:

Astronomy

May. 01, 2019 Rise Set
Actual Time 6:01 AM MDT 7:51 PM MDT
Civil Twilight 5:32 AM MDT 8:20 PM MDT
Nautical Twilight 4:57 AM MDT 8:55 PM MDT
Astronomical Twilight 4:20 AM MDT 9:33 PM MDT
Moon 4:45 AM MDT (5/1) 4:44 PM MDT (5/1)
Length of Visible Light 14h 47m
Length of Day
13h 50m
Waning Crescent, 10% of the Moon is Illuminated
May 1
Waning Crescent
May 4
New
May 11
First Quarter
May 18
Full
May 26
Last Quarter

Hourly Weather History & Observations

Time (MDT) Temp. Windchill Dew Point Humidity Pressure Visibility Wind Dir Wind Speed Gust Speed Precip Events Conditions
12:58 AM 35.1 °F - 34.9 °F 99% 29.87 in 10.0 mi Calm Calm - N/A   Overcast
1:13 AM 35.6 °F 31.7 °F 35.6 °F 100% 29.87 in 10.0 mi SW 4.6 mph - N/A   Overcast
1:28 AM 35.6 °F 29.9 °F 35.6 °F 100% 29.86 in 10.0 mi SSW 6.9 mph - N/A   Overcast
1:58 AM 35.8 °F 29.4 °F 35.6 °F 99% 29.84 in 8.0 mi SSW 8.1 mph - N/A   Overcast
2:01 AM 35.6 °F 28.6 °F 35.6 °F 100% 29.84 in 6.0 mi SSW 9.2 mph - N/A   Overcast
2:02 AM 35.6 °F 28.6 °F 35.6 °F 100% 29.84 in 6.0 mi SSW 9.2 mph - N/A   Overcast
2:03 AM 35.6 °F 29.2 °F 35.6 °F 100% 29.84 in 6.0 mi SSW 8.1 mph - N/A   Overcast
2:13 AM 35.6 °F 28.6 °F 35.6 °F 100% 29.83 in 5.0 mi South 9.2 mph - N/A   Overcast
2:28 AM 35.6 °F 28.6 °F 35.6 °F 100% 29.83 in 4.0 mi SSW 9.2 mph - N/A   Overcast
2:36 AM 35.6 °F 30.7 °F 35.6 °F 100% 29.84 in 3.0 mi SSW 5.8 mph - N/A   Light Drizzle
2:47 AM 35.6 °F 28.6 °F 35.6 °F 100% 29.83 in 1.6 mi South 9.2 mph - N/A   Overcast
2:52 AM 35.6 °F 29.2 °F 35.6 °F 100% 29.81 in 0.8 mi SSE 8.1 mph - N/A   Overcast
2:58 AM 36.1 °F 29.3 °F 36.1 °F 100% 29.81 in 0.6 mi South 9.2 mph - 0.00 in   Mist
3:28 AM 37.4 °F 27.8 °F 37.4 °F 100% 29.79 in 1.2 mi SSE 17.3 mph - N/A   Overcast
3:43 AM 37.4 °F 28.2 °F 37.4 °F 100% 29.80 in 5.0 mi SSE 16.1 mph - N/A   Overcast
3:58 AM 36.5 °F 28.2 °F 36.5 °F 100% 29.78 in 4.0 mi SSE 12.7 mph 21.9 mph N/A   Overcast
4:13 AM 37.4 °F 29.3 °F 37.4 °F 100% 29.78 in 3.0 mi SSE 12.7 mph - N/A   Overcast
4:28 AM 35.6 °F 28.0 °F 35.6 °F 100% 29.82 in 4.0 mi SSE 10.4 mph - N/A   Overcast
4:43 AM 35.6 °F 28.6 °F 35.6 °F 100% 29.82 in 1.1 mi SSE 9.2 mph - N/A   Overcast
4:58 AM 36.3 °F 28.0 °F 36.3 °F 100% 29.83 in 1.0 mi SSE 12.7 mph - N/A   Overcast
5:13 AM 35.6 °F 28.0 °F 35.6 °F 100% 29.82 in 0.9 mi SSE 10.4 mph - N/A   Mist
5:30 AM 35.6 °F 28.6 °F 35.6 °F 100% 29.85 in 0.8 mi SSE 9.2 mph - N/A   Light Drizzle
5:40 AM 35.6 °F 28.6 °F 35.6 °F 100% 29.85 in 1.0 mi SSE 9.2 mph - N/A   Light Drizzle
5:44 AM 35.6 °F 29.2 °F 35.6 °F 100% 29.85 in 1.2 mi SSE 8.1 mph - N/A Rain Light Rain
5:55 AM 35.6 °F 31.7 °F 35.6 °F 100% 29.85 in 0.9 mi South 4.6 mph - N/A Rain Light Rain
5:58 AM 35.8 °F 29.4 °F 35.8 °F 100% 29.87 in 0.9 mi South 8.1 mph - 0.00 in Rain Light Rain
6:15 AM 35.6 °F 31.7 °F 35.6 °F 100% 29.87 in 0.5 mi SSE 4.6 mph - N/A Fog Light Drizzle
6:25 AM 35.6 °F 32.8 °F 35.6 °F 100% 29.90 in 1.4 mi South 3.5 mph - N/A   Light Drizzle
6:39 AM 35.6 °F 31.7 °F 35.6 °F 100% 29.89 in 1.5 mi SE 4.6 mph - N/A   Overcast
6:58 AM 36.1 °F 30.6 °F 36.1 °F 100% 29.88 in 2.0 mi SSE 6.9 mph - 0.00 in   Overcast
7:58 AM 36.9 °F 30.7 °F 36.9 °F 100% 29.91 in 2.0 mi SSE 8.1 mph - N/A   Overcast
8:13 AM 37.4 °F 32.1 °F 37.4 °F 100% 29.91 in 4.0 mi SSE 6.9 mph - N/A   Overcast
8:28 AM 37.4 °F 32.8 °F 37.4 °F 100% 29.91 in 5.0 mi SE 5.8 mph - N/A   Overcast
8:45 AM 37.4 °F 33.8 °F 37.4 °F 100% 29.91 in 10.0 mi SSE 4.6 mph - N/A   Mostly Cloudy
9:14 AM 39.2 °F 35.9 °F 39.2 °F 100% 29.89 in 10.0 mi South 4.6 mph - N/A   Overcast
9:44 AM 41.0 °F 36.4 °F 41.0 °F 100% 29.90 in 10.0 mi SSE 6.9 mph - N/A   Mostly Cloudy
9:58 AM 42.4 °F 37.0 °F 39.9 °F 91% 29.88 in 10.0 mi South 9.2 mph - N/A   Mostly Cloudy
10:58 AM 48.4 °F - 38.7 °F 69% 29.86 in 10.0 mi SSE 8.1 mph - N/A   Mostly Cloudy
11:58 AM 49.1 °F - 39.4 °F 69% 29.86 in 10.0 mi South 9.2 mph - N/A   Mostly Cloudy
12:25 PM 50.0 °F - 39.2 °F 66% 29.87 in 10.0 mi Variable 3.5 mph - N/A   Mostly Cloudy
12:43 PM 48.2 °F - 39.2 °F 71% 29.91 in 10.0 mi North 16.1 mph - N/A   Mostly Cloudy
12:58 PM 45.7 °F 37.6 °F 38.3 °F 75% 29.92 in 10.0 mi North 21.9 mph 26.5 mph N/A   Mostly Cloudy
1:08 PM 42.8 °F 34.3 °F 37.4 °F 81% 29.94 in 10.0 mi North 19.6 mph - N/A   Mostly Cloudy
1:26 PM 42.8 °F 35.8 °F 37.4 °F 81% 29.96 in 10.0 mi North 13.8 mph - N/A   Mostly Cloudy
1:58 PM 41.7 °F 33.4 °F 36.3 °F 81% 29.96 in 10.0 mi North 17.3 mph - N/A   Mostly Cloudy
2:28 PM 41.0 °F 32.8 °F 35.6 °F 81% 29.99 in 10.0 mi NNW 16.1 mph - N/A Rain Light Rain
2:58 PM 42.8 °F 34.3 °F 35.1 °F 74% 29.98 in 10.0 mi North 19.6 mph 26.5 mph N/A Rain Light Rain
3:41 PM 42.8 °F 34.5 °F 33.8 °F 70% 29.98 in 10.0 mi North 18.4 mph - N/A   Overcast
3:58 PM 42.6 °F 34.3 °F 34.2 °F 72% 29.99 in 10.0 mi NW 18.4 mph - N/A   Overcast
4:00 PM 42.8 °F 34.5 °F 35.6 °F 76% 29.99 in 10.0 mi NNW 18.4 mph - N/A Rain Light Rain
4:15 PM 41.0 °F 31.4 °F 35.6 °F 81% 29.99 in 10.0 mi North 21.9 mph - N/A   Overcast
4:20 PM 41.0 °F 32.5 °F 35.6 °F 81% 29.99 in 10.0 mi North 17.3 mph - N/A   Light Drizzle
4:50 PM 41.0 °F 33.5 °F 33.8 °F 76% 30.00 in 10.0 mi North 13.8 mph 26.5 mph N/A Rain Light Rain
4:58 PM 40.1 °F 31.3 °F 33.4 °F 77% 30.02 in 10.0 mi North 17.3 mph - 0.00 in   Overcast
4:59 PM 41.0 °F 32.2 °F 33.8 °F 76% 30.02 in 10.0 mi NNW 18.4 mph - N/A Rain Light Rain
5:08 PM 39.2 °F 30.8 °F 35.6 °F 87% 30.05 in 10.0 mi North 15.0 mph - N/A Rain Light Rain
5:53 PM 37.4 °F 29.8 °F 37.4 °F 100% 30.07 in 10.0 mi North 11.5 mph - N/A Rain Light Rain
5:58 PM 37.9 °F 31.5 °F 36.9 °F 96% 30.07 in 10.0 mi NNW 9.2 mph - 0.00 in Rain Light Rain
6:10 PM 37.4 °F 31.4 °F 37.4 °F 100% 30.08 in 10.0 mi NNW 8.1 mph - N/A   Overcast
6:19 PM 37.4 °F 32.8 °F 37.4 °F 100% 30.08 in 10.0 mi North 5.8 mph - N/A Rain Light Rain
6:34 PM 37.4 °F 31.4 °F 35.6 °F 93% 30.09 in 10.0 mi NNW 8.1 mph - N/A Rain Light Rain
6:47 PM 37.4 °F 29.8 °F 35.6 °F 93% 30.08 in 10.0 mi North 11.5 mph - N/A   Overcast
6:58 PM 37.9 °F 30.9 °F 35.6 °F 91% 30.08 in 10.0 mi North 10.4 mph - 0.00 in   Overcast
7:05 PM 37.4 °F 28.5 °F 35.6 °F 93% 30.08 in 10.0 mi NNE 15.0 mph - N/A   Overcast
7:58 PM 37.0 °F 31.0 °F 34.2 °F 89% 30.11 in 10.0 mi North 8.1 mph - N/A   Overcast
8:58 PM 36.9 °F 30.1 °F 32.7 °F 85% 30.11 in 10.0 mi North 9.2 mph - N/A   Overcast
9:58 PM 36.7 °F 30.5 °F 31.5 °F 81% 30.13 in 10.0 mi North 8.1 mph - N/A   Overcast
10:28 PM 35.6 °F 30.7 °F 30.2 °F 81% 30.12 in 10.0 mi North 5.8 mph - N/A   Overcast
10:58 PM 36.1 °F 31.4 °F 30.6 °F 80% 30.11 in 10.0 mi NNW 5.8 mph - N/A   Overcast
11:43 PM 35.6 °F - 30.2 °F 81% 30.11 in 10.0 mi Calm Calm - N/A   Overcast
11:58 PM 36.3 °F 30.8 °F 30.7 °F 80% 30.12 in 10.0 mi South 6.9 mph - N/A   Overcast